Time,TemperatureF,DewpointF,PressureIn,WindDirection,WindDirectionDegrees,WindSpeedMPH,WindSpeedGustMPH,Humidity,HourlyPrecipIn,Conditions,Clouds,dailyrainin,SoftwareType,DateUTC
2013-08-31 00:14:00,71.0,66.0,29.67,SW,215,0.0,-999.0,84,-99.99,,,-99.99,,2013-08-31 04:14:00,
2013-08-31 00:24:00,71.0,66.0,29.66,SW,215,0.0,-999.0,84,-99.99,,,-99.99,,2013-08-31 04:24:00,
2013-08-31 00:44:00,71.0,66.0,29.65,SW,219,0.0,-999.0,84,-99.99,,,-99.99,,2013-08-31 04:44:00,
2013-08-31 00:54:00,71.0,66.0,29.65,WSW,248,0.0,-999.0,84,-99.99,,,-99.99,,2013-08-31 04:54:00,
2013-08-31 01:13:00,71.0,66.0,29.66,SW,236,0.0,-999.0,84,-99.99,,,-99.99,,2013-08-31 05:13:00,
2013-08-31 01:23:00,71.0,66.0,29.67,SW,236,0.0,-999.0,84,-99.99,,,-99.99,,2013-08-31 05:23:00,
2013-08-31 01:42:00,71.0,66.0,29.66,SW,236,0.0,-999.0,85,-99.99,,,-99.99,,2013-08-31 05:42:00,
2013-08-31 01:52:00,71.0,67.0,29.64,SW,236,0.0,-999.0,86,-99.99,,,-99.99,,2013-08-31 05:52:00,
2013-08-31 02:12:00,71.0,66.0,29.62,WSW,244,1.0,-999.0,85,-99.99,,,-99.99,,2013-08-31 06:12:00,
2013-08-31 02:22:00,72.0,67.0,29.62,SSW,195,1.0,-999.0,84,-99.99,,,-99.99,,2013-08-31 06:22:00,
2013-08-31 02:42:00,72.0,67.0,29.61,NNW,342,1.0,-999.0,83,-99.99,,,-99.99,,2013-08-31 06:42:00,
2013-08-31 02:52:00,72.0,67.0,29.64,NNW,342,0.0,-999.0,85,-99.99,,,-99.99,,2013-08-31 06:52:00,
2013-08-31 03:12:00,72.0,67.0,29.64,SW,219,0.0,-999.0,85,-99.99,,,-99.99,,2013-08-31 07:12:00,
2013-08-31 03:22:00,71.0,67.0,29.64,SW,219,0.0,-999.0,87,-99.99,,,-99.99,,2013-08-31 07:22:00,
2013-08-31 03:42:00,71.0,67.0,29.64,SW,219,0.0,-999.0,86,-99.99,,,-99.99,,2013-08-31 07:42:00,
2013-08-31 03:52:00,71.0,67.0,29.63,SW,219,0.0,-999.0,86,-99.99,,,-99.99,,2013-08-31 07:52:00,
2013-08-31 04:12:00,71.0,67.0,29.63,SW,234,0.0,-999.0,86,-99.99,,,-99.99,,2013-08-31 08:12:00,
2013-08-31 04:22:00,71.0,66.0,29.62,SSW,212,0.0,-999.0,85,-99.99,,,-99.99,,2013-08-31 08:22:00,
2013-08-31 04:42:00,71.0,66.0,29.62,SW,222,1.0,-999.0,85,-99.99,,,-99.99,,2013-08-31 08:42:00,
2013-08-31 04:52:00,71.0,66.0,29.62,SW,230,1.0,-999.0,84,-99.99,,,-99.99,,2013-08-31 08:52:00,
2013-08-31 05:12:00,71.0,66.0,29.61,SSW,195,1.0,-999.0,84,-99.99,,,-99.99,,2013-08-31 09:12:00,
2013-08-31 05:23:00,71.0,66.0,29.61,WSW,239,1.0,-999.0,84,-99.99,,,-99.99,,2013-08-31 09:23:00,
2013-08-31 05:44:00,71.0,66.0,29.61,SSW,199,1.0,-999.0,84,-99.99,,,-99.99,,2013-08-31 09:44:00,
2013-08-31 05:53:00,71.0,66.0,29.60,SSE,165,1.0,-999.0,84,-99.99,,,-99.99,,2013-08-31 09:53:00,
2013-08-31 06:13:00,71.0,66.0,29.61,WSW,240,1.0,-999.0,84,-99.99,,,-99.99,,2013-08-31 10:13:00,
2013-08-31 06:23:00,71.0,66.0,29.61,SW,230,0.0,-999.0,85,-99.99,,,-99.99,,2013-08-31 10:23:00,
2013-08-31 06:43:00,70.0,66.0,29.62,SW,229,0.0,-999.0,86,-99.99,,,-99.99,,2013-08-31 10:43:00,
2013-08-31 06:53:00,70.0,66.0,29.62,SW,234,0.0,-999.0,86,-99.99,,,-99.99,,2013-08-31 10:53:00,
2013-08-31 07:12:00,70.0,66.0,29.64,SW,234,0.0,-999.0,87,-99.99,,,-99.99,,2013-08-31 11:12:00,
2013-08-31 07:22:00,70.0,66.0,29.64,SW,223,0.0,-999.0,88,-99.99,,,-99.99,,2013-08-31 11:22:00,
2013-08-31 07:42:00,69.0,65.0,29.65,SW,227,0.0,-999.0,88,-99.99,,,-99.99,,2013-08-31 11:42:00,
2013-08-31 07:52:00,69.0,66.0,29.65,SW,227,0.0,-999.0,89,-99.99,,,-99.99,,2013-08-31 11:52:00,
2013-08-31 08:12:00,69.0,66.0,29.65,WSW,246,0.0,-999.0,89,-99.99,,,-99.99,,2013-08-31 12:12:00,
2013-08-31 08:22:00,70.0,66.0,29.65,SSW,203,0.0,-999.0,88,-99.99,,,-99.99,,2013-08-31 12:22:00,
2013-08-31 08:42:00,70.0,66.0,29.65,SSW,198,0.0,-999.0,88,-99.99,,,-99.99,,2013-08-31 12:42:00,
2013-08-31 08:52:00,70.0,66.0,29.66,SSW,198,0.0,-999.0,88,-99.99,,,-99.99,,2013-08-31 12:52:00,
2013-08-31 09:11:00,70.0,66.0,29.67,SW,220,0.0,-999.0,88,-99.99,,,-99.99,,2013-08-31 13:11:00,
2013-08-31 09:22:00,71.0,67.0,29.67,SW,236,1.0,-999.0,86,-99.99,,,-99.99,,2013-08-31 13:22:00,
2013-08-31 09:42:00,72.0,67.0,29.67,WSW,244,0.0,-999.0,85,-99.99,,,-99.99,,2013-08-31 13:42:00,
2013-08-31 09:52:00,73.0,67.0,29.67,WSW,257,1.0,-999.0,82,-99.99,,,-99.99,,2013-08-31 13:52:00,
2013-08-31 10:12:00,74.0,68.0,29.67,SW,222,1.0,-999.0,81,-99.99,,,-99.99,,2013-08-31 14:12:00,
2013-08-31 10:22:00,75.0,68.0,29.68,West,268,1.0,-999.0,78,-99.99,,,-99.99,,2013-08-31 14:22:00,
2013-08-31 10:42:00,76.0,68.0,29.67,North,0,0.0,-999.0,77,-99.99,,,-99.99,,2013-08-31 14:42:00,
2013-08-31 10:52:00,77.0,68.0,29.67,WNW,292,1.0,-999.0,75,-99.99,,,-99.99,,2013-08-31 14:52:00,
2013-08-31 11:12:00,77.0,68.0,29.67,SW,224,0.0,-999.0,74,-99.99,,,-99.99,,2013-08-31 15:12:00,
2013-08-31 11:23:00,77.0,68.0,29.68,WSW,244,2.0,-999.0,73,-99.99,,,-99.99,,2013-08-31 15:23:00,
2013-08-31 11:44:00,78.0,68.0,29.67,NNW,343,1.0,-999.0,72,-99.99,,,-99.99,,2013-08-31 15:44:00,
2013-08-31 11:55:00,78.0,69.0,29.67,North,349,1.0,-999.0,74,-99.99,,,-99.99,,2013-08-31 15:55:00,
2013-08-31 12:14:00,77.0,68.0,29.67,NNW,342,2.0,-999.0,75,-99.99,,,-99.99,,2013-08-31 16:14:00,
2013-08-31 12:25:00,76.0,68.0,29.68,NNW,328,2.0,-999.0,77,-99.99,,,-99.99,,2013-08-31 16:25:00,
2013-08-31 12:44:00,76.0,69.0,29.67,NNW,340,2.0,-999.0,78,-99.99,,,-99.99,,2013-08-31 16:44:00,
2013-08-31 12:52:00,77.0,69.0,29.67,NW,325,1.0,-999.0,76,-99.99,,,-99.99,,2013-08-31 16:52:00,
2013-08-31 13:13:00,78.0,69.0,29.67,WSW,246,3.0,-999.0,74,-99.99,,,-99.99,,2013-08-31 17:13:00,
2013-08-31 13:23:00,78.0,69.0,29.67,NW,311,3.0,-999.0,74,-99.99,,,-99.99,,2013-08-31 17:23:00,
2013-08-31 13:43:00,79.0,68.0,29.66,NNW,332,3.0,-999.0,70,-99.99,,,-99.99,,2013-08-31 17:43:00,
2013-08-31 13:53:00,81.0,71.0,29.66,North,349,2.0,-999.0,71,-99.99,,,-99.99,,2013-08-31 17:53:00,
2013-08-31 14:13:00,81.0,71.0,29.66,NNW,333,2.0,-999.0,71,-99.99,,,-99.99,,2013-08-31 18:13:00,
2013-08-31 14:22:00,80.0,70.0,29.66,NW,325,2.0,-999.0,71,-99.99,,,-99.99,,2013-08-31 18:22:00,
2013-08-31 14:42:00,80.0,69.0,29.66,NNW,330,1.0,-999.0,70,-99.99,,,-99.99,,2013-08-31 18:42:00,
2013-08-31 14:52:00,81.0,69.0,29.65,North,354,2.0,-999.0,68,-99.99,,,-99.99,,2013-08-31 18:52:00,
2013-08-31 15:12:00,82.0,70.0,29.66,NNW,335,1.0,-999.0,67,-99.99,,,-99.99,,2013-08-31 19:12:00,
2013-08-31 15:22:00,82.0,70.0,29.65,NW,312,2.0,-999.0,68,-99.99,,,-99.99,,2013-08-31 19:22:00,
2013-08-31 15:42:00,82.0,70.0,29.65,NNW,339,1.0,-999.0,67,-99.99,,,-99.99,,2013-08-31 19:42:00,
2013-08-31 15:52:00,82.0,69.0,29.65,NNW,347,2.0,-999.0,65,-99.99,,,-99.99,,2013-08-31 19:52:00,
2013-08-31 16:12:00,81.0,69.0,29.64,NNW,332,1.0,-999.0,67,-99.99,,,-99.99,,2013-08-31 20:12:00,
2013-08-31 16:22:00,80.0,70.0,29.65,NNW,329,1.0,-999.0,72,-99.99,,,-99.99,,2013-08-31 20:22:00,
2013-08-31 16:42:00,81.0,70.0,29.64,NW,326,1.0,-999.0,70,-99.99,,,-99.99,,2013-08-31 20:42:00,
2013-08-31 16:52:00,81.0,70.0,29.64,NW,318,3.0,-999.0,70,-99.99,,,-99.99,,2013-08-31 20:52:00,
2013-08-31 17:12:00,81.0,71.0,29.64,North,0,1.0,-999.0,72,-99.99,,,-99.99,,2013-08-31 21:12:00,
2013-08-31 17:22:00,81.0,70.0,29.64,NNW,346,2.0,-999.0,70,-99.99,,,-99.99,,2013-08-31 21:22:00,
2013-08-31 17:54:00,81.0,70.0,29.64,North,354,1.0,-999.0,70,-99.99,,,-99.99,,2013-08-31 21:54:00,
2013-08-31 18:13:00,80.0,69.0,29.64,NNW,339,2.0,-999.0,70,-99.99,,,-99.99,,2013-08-31 22:13:00,
2013-08-31 18:24:00,78.0,68.0,29.64,NW,322,2.0,-999.0,72,-99.99,,,-99.99,,2013-08-31 22:24:00,
2013-08-31 18:43:00,78.0,69.0,29.64,NNW,333,1.0,-999.0,73,-99.99,,,-99.99,,2013-08-31 22:43:00,
2013-08-31 18:53:00,77.0,68.0,29.65,NNW,344,1.0,-999.0,75,-99.99,,,-99.99,,2013-08-31 22:53:00,
2013-08-31 19:12:00,76.0,68.0,29.65,NNW,337,0.0,-999.0,77,-99.99,,,-99.99,,2013-08-31 23:12:00,
2013-08-31 19:23:00,76.0,69.0,29.65,NNW,337,0.0,-999.0,78,-99.99,,,-99.99,,2013-08-31 23:23:00,
2013-08-31 19:42:00,75.0,68.0,29.65,NNW,340,0.0,-999.0,79,-99.99,,,-99.99,,2013-08-31 23:42:00,
2013-08-31 19:52:00,74.0,68.0,29.65,NNW,340,0.0,-999.0,81,-99.99,,,-99.99,,2013-08-31 23:52:00,
2013-08-31 20:11:00,74.0,68.0,29.65,NNW,340,0.0,-999.0,82,-99.99,,,-99.99,,2013-09-01 00:11:00,
2013-08-31 20:22:00,73.0,68.0,29.65,NNW,340,0.0,-999.0,83,-99.99,,,-99.99,,2013-09-01 00:22:00,
2013-08-31 20:42:00,73.0,68.0,29.66,NNW,340,0.0,-999.0,84,-99.99,,,-99.99,,2013-09-01 00:42:00,
2013-08-31 20:52:00,73.0,68.0,29.67,NNW,340,0.0,-999.0,85,-99.99,,,-99.99,,2013-09-01 00:52:00,
2013-08-31 21:11:00,72.0,68.0,29.67,NNW,340,0.0,-999.0,86,-99.99,,,-99.99,,2013-09-01 01:11:00,
2013-08-31 21:22:00,72.0,68.0,29.68,NNW,340,0.0,-999.0,86,-99.99,,,-99.99,,2013-09-01 01:22:00,
2013-08-31 21:42:00,71.0,67.0,29.69,NNW,340,0.0,-999.0,87,-99.99,,,-99.99,,2013-09-01 01:42:00,
2013-08-31 21:52:00,70.0,66.0,29.69,NNW,340,0.0,-999.0,88,-99.99,,,-99.99,,2013-09-01 01:52:00,
2013-08-31 22:12:00,70.0,67.0,29.68,NNW,340,0.0,-999.0,89,-99.99,,,-99.99,,2013-09-01 02:12:00,
2013-08-31 22:23:00,69.0,66.0,29.69,NNW,340,0.0,-999.0,89,-99.99,,,-99.99,,2013-09-01 02:23:00,
2013-08-31 22:43:00,69.0,66.0,29.69,NNW,340,0.0,-999.0,90,-99.99,,,-99.99,,2013-09-01 02:43:00,
2013-08-31 22:53:00,69.0,66.0,29.69,NNW,340,0.0,-999.0,91,-99.99,,,-99.99,,2013-09-01 02:53:00,
2013-08-31 23:12:00,68.0,65.0,29.69,NNW,340,0.0,-999.0,91,-99.99,,,-99.99,,2013-09-01 03:12:00,
2013-08-31 23:23:00,68.0,65.0,29.69,NNW,340,0.0,-999.0,91,-99.99,,,-99.99,,2013-09-01 03:23:00,
2013-08-31 23:44:00,68.0,65.0,29.69,NNW,340,0.0,-999.0,91,-99.99,,,-99.99,,2013-09-01 03:44:00,
2013-08-31 23:54:00,68.0,65.0,29.69,NNW,340,0.0,-999.0,91,-99.99,,,-99.99,,2013-09-01 03:54:00,